Helicity
81 63 67 69 70 66 36 62 54 60 64 84 74 81 97 92 85 97 68 57 52 46 23 39 32 17 19 44 8 9 43 38 18 24 37 1 16 9 30 54 117 73 81 229
90 72 63 64 68 58 78 67 86 76 77 72 82 90 87 91 97 94 85 86 67 30 43 56 48 36 67 31 31 44 29 19 20 29 35 31 -29 22 -4 84 101 35 150 181
83 88 78 66 81 65 79 92 69 73 68 38 49 47 63 98 96 55 77 61 46 50 57 74 77 52 62 36 42 24 20 20 12 19 11 71 26 24 5 60 100 155 73 64
87 93 80 71 80 67 99 99 78 93 72 51 55 46 46 83 94 79 81 54 74 46 54 28 79 82 74 62 22 -2 10 20 31 34 -2 30 48 55 23 26 51 91 98 133
80 97 83 78 85 77 119 146 123 92 55 75 56 58 42 66 65 115 82 87 37 48 52 46 15 38 66 81 48 22 20 35 29 24 11 22 16 41 67 17 28 86 107 138
101 100 85 96 95 72 116 128 97 98 68 60 48 51 55 61 60 68 51 82 53 48 44 23 17 42 37 41 43 101 20 14 41 18 10 28 17 -25 10 8 10 43 80 76
95 109 109 92 83 63 174 141 137 102 70 68 49 45 47 51 59 66 81 63 76 66 32 23 30 36 47 54 61 46 43 8 -6 -7 18 24 46 39 68 22 36 39 37 20
86 131 103 96 84 47 108 118 128 130 78 74 47 38 40 46 62 63 67 81 81 55 52 44 48 62 52 70 72 52 34 15 10 3 7 66 57 17 49 12 5 28 31 16
62 90 92 88 66 44 101 110 96 142 100 92 83 58 44 33 41 64 65 60 49 63 66 56 58 67 68 67 54 38 28 25 33 14 24 43 37 13 37 67 25 35 32 27
62 76 97 95 77 62 110 102 99 140 91 74 78 52 59 46 46 60 61 57 65 60 61 59 53 47 59 63 68 56 48 60 76 35 32 40 14 11 29 44 33 19 21 18
53 82 103 102 99 73 115 100 103 152 108 78 81 74 61 57 47 46 59 54 36 58 55 43 47 41 47 46 76 70 71 54 54 52 44 32 13 28 33 25 43 28 25 17
80 105 108 101 118 76 99 110 114 111 100 90 68 74 65 71 65 69 59 56 53 46 42 38 37 53 66 46 47 40 41 55 36 29 27 -9 -15 28 41 49 28 28 7 3
49 86 88 117 117 82 88 115 110 116 92 56 46 38 57 60 72 77 69 61 79 61 69 37 47 53 67 57 50 36 42 35 43 -10 10 34 26 21 9 27 27 17 7 3
29 103 102 118 102 93 103 114 98 127 110 88 75 42 71 83 90 114 117 87 64 61 77 63 51 59 58 60 64 75 65 70 36 39 29 11 15 4 7 9 41 31 21 17
158 142 109 127 107 98 119 111 94 113 127 99 80 41 55 52 53 68 80 53 67 70 66 76 56 61 64 72 77 77 76 64 67 15 -11 -29 -19 16 29 17 10 13 33 55
313 83 185 140 123 174 152 84 74 85 105 97 60 30 67 86 65 75 98 101 99 85 72 56 62 102 89 31 63 32 102 22 -3 7 47 53 49 54 50 38 38 49 50 69
290 151 196 187 178 195 221 120 108 119 161 121 69 28 35 73 85 95 98 92 87 92 82 88 106 97 110 134 65 55 67 51 25 69 77 62 36 41 59 87 91 109 110 102
235 300 120 155 183 214 215 195 128 94 211 168 116 103 86 82 108 123 116 109 108 99 113 113 109 155 152 87 24 -41 79 116 88 65 98 101 131 129 115 105 116 133 134 136
164 258 151 167 149 156 177 164 134 163 185 176 162 162 109 108 148 139 115 125 109 129 131 125 123 165 172 88 35 33 68 61 50 125 148 144 130 120 121 129 127 138 126 139
152 178 242 168 88 115 158 171 139 123 175 242 218 202 190 160 132 112 128 143 168 153 76 92 107 125 113 105 78 33 67 106 164 151 97 99 106 109 101 85 88 96 96 111
115 217 225 271 204 186 119 146 149 167 167 137 189 239 227 195 174 174 203 201 163 124 47 97 69 36 40 54 61 68 80 116 97 70 53 81 79 94 95 90 94 108 109 100
136 130 207 279 250 173 154 148 150 126 117 140 130 214 298 283 280 249 205 172 118 78 94 100 49 56 45 43 56 48 41 50 74 62 59 46 54 74 87 95 103 99 107 125
120 183 189 180 195 153 167 176 206 162 118 77 106 178 209 234 266 259 169 76 68 155 109 93 60 49 54 70 43 56 67 66 68 53 54 63 74 82 91 104 101 129 139 123
184 230 208 174 122 214 205 241 202 206 154 109 126 131 110 175 189 148 106 160 156 140 126 75 64 59 64 77 65 68 63 57 52 45 52 59 70 82 88 101 120 142 135 129
227 198 248 227 171 123 195 184 159 187 148 162 171 164 134 173 145 135 150 122 130 115 87 103 79 68 97 116 104 94 81 67 50 50 53 53 68 95 104 93 116 142 170 166
199 225 209 212 237 188 172 174 185 178 147 167 184 156 132 154 134 125 102 128 102 120 101 71 71 74 103 136 122 103 103 88 79 68 57 58 66 93 116 141 152 156 169 165
191 227 236 226 233 214 193 165 148 120 182 235 200 169 176 148 158 178 148 154 128 131 154 135 113 154 191 196 177 151 132 121 112 107 90 72 86 130 165 160 133 155 164 166
Wind_Speed
42 40 39 39 36 35 32 36 38 29 26 32 29 31 32 32 26 25 23 23 17 16 18 19 23 21 24 42 44 42 38 42 42 33 25 20 22 26 38 41 35 44 45 61
41 37 39 39 35 32 39 37 36 31 25 34 25 27 31 26 25 23 26 23 20 17 19 25 23 25 29 33 38 40 42 38 43 36 28 26 15 40 48 49 46 30 31 49
43 37 36 39 36 34 36 39 39 33 25 28 33 36 26 22 25 18 19 15 14 13 14 13 18 16 24 26 26 31 38 40 44 41 38 36 25 46 51 46 38 35 19 25
44 41 35 37 38 33 37 37 39 33 34 29 16 31 34 26 26 23 23 22 14 13 18 15 15 27 20 24 22 25 35 39 45 43 35 43 47 44 48 53 49 36 34 29
47 43 35 35 41 37 43 43 41 36 41 37 29 20 33 24 20 26 23 17 16 17 10 9 12 20 25 30 27 23 30 36 47 44 43 51 51 55 52 52 50 46 41 32
45 43 37 36 36 38 46 41 39 41 44 30 31 26 23 33 28 25 18 24 20 13 15 17 12 12 12 17 19 23 28 39 39 38 40 44 53 68 63 50 50 45 42 30
48 41 37 38 37 47 48 43 40 40 49 29 29 35 35 31 23 22 30 23 20 25 22 14 13 13 14 14 17 19 21 22 36 39 39 39 43 35 51 63 52 54 50 36
53 44 37 36 37 49 54 46 41 44 53 49 40 33 32 34 30 26 21 24 26 27 24 24 22 22 22 20 21 23 25 26 25 28 38 45 45 40 45 54 52 48 57 48
48 42 41 33 33 42 51 51 45 44 52 46 41 40 30 31 25 29 25 28 27 26 26 26 26 29 28 28 25 25 25 26 27 29 36 39 32 33 38 42 52 39 40 44
54 45 43 35 32 37 43 47 40 44 54 49 39 36 33 30 34 33 30 28 29 28 28 26 26 25 28 28 26 28 28 28 29 34 35 37 36 32 33 46 43 38 39 43
41 37 39 35 33 35 41 45 40 46 55 50 40 38 38 35 33 34 26 31 28 29 28 28 28 26 26 25 25 26 29 31 30 34 35 34 34 32 39 35 31 30 32 36
43 35 37 31 35 42 41 48 41 45 55 49 42 43 41 37 30 31 23 30 28 27 27 29 29 24 24 21 22 25 28 28 30 33 33 33 40 32 32 30 31 31 31 31
54 38 34 28 31 40 42 47 40 44 50 56 53 51 41 38 33 28 29 28 27 27 27 30 28 21 27 22 21 21 23 25 27 25 29 37 40 43 34 34 33 31 31 29
52 40 35 29 28 35 41 45 43 44 44 52 46 37 37 39 37 31 29 31 28 29 28 27 25 19 25 21 17 14 16 22 25 27 32 36 38 41 46 42 34 36 34 29
53 37 33 29 29 31 35 43 44 46 45 45 46 41 40 36 34 31 29 28 30 33 36 33 30 34 28 19 26 17 23 22 26 28 30 33 35 34 35 36 37 31 26 23
49 40 37 31 30 30 34 52 57 49 43 48 52 37 37 34 31 30 32 33 34 35 37 41 39 37 38 20 12 14 17 20 25 20 25 22 22 24 29 29 29 27 25 21
44 35 30 30 30 32 48 47 38 33 36 43 50 49 39 32 30 32 34 34 35 37 41 44 46 45 43 45 51 52 11 18 17 14 18 25 15 20 23 22 22 21 21 19
43 39 29 24 32 34 50 40 22 23 36 41 51 49 42 32 36 39 36 39 41 42 46 47 49 47 49 54 53 53 44 32 16 8 22 30 19 21 22 21 19 19 18 18
44 42 31 22 40 45 43 25 28 32 39 50 52 56 54 34 40 39 41 42 49 45 47 50 48 49 49 46 49 47 35 30 30 16 20 20 20 18 18 17 17 16 16 16
39 33 39 43 38 11 14 33 39 44 50 50 58 47 51 40 44 48 46 47 51 54 50 43 50 62 74 67 65 54 42 25 18 21 22 17 15 13 13 12 13 12 12 13
34 42 43 35 19 29 32 42 43 43 51 48 52 51 50 44 51 48 43 45 45 53 48 45 47 48 40 40 37 37 38 21 17 29 31 10 15 7 9 11 12 12 12 12
31 31 30 31 38 36 41 44 42 46 52 39 38 41 38 36 36 39 40 45 44 51 35 42 43 40 44 42 39 38 35 24 19 25 23 18 16 11 11 11 11 11 12 13
32 34 41 41 40 46 53 57 52 50 40 36 34 34 34 34 36 38 38 43 51 38 43 45 41 43 46 45 40 35 32 24 20 21 21 20 18 15 12 11 12 12 12 12
42 42 49 49 44 49 48 49 48 45 42 32 27 29 33 33 35 34 39 39 38 49 51 48 42 52 53 46 37 32 29 24 20 19 19 19 17 16 15 13 11 10 10 11
42 41 50 46 39 36 39 40 38 38 31 30 31 33 36 35 36 36 36 38 47 49 50 46 52 52 50 45 35 32 29 24 22 23 21 21 18 16 16 14 11 11 11 11
40 43 43 40 43 40 39 37 38 35 32 30 35 40 44 45 41 41 44 43 48 44 42 45 46 45 43 39 34 31 30 28 26 24 24 22 20 17 16 15 13 11 10 10
40 44 42 39 37 34 35 37 38 34 37 46 41 47 46 37 49 53 46 50 39 32 37 40 41 42 42 40 36 35 34 31 28 26 25 24 23 20 18 17 17 16 15 16
Wind_Direction
266 272 282 291 304 313 317 324 328 359 19 2 13 13 25 31 41 55 57 66 82 84 69 67 64 59 31 337 320 325 334 305 310 322 8 34 323 292 246 237 236 242 247 219
260 266 275 281 293 301 304 313 324 345 2 350 7 14 18 31 41 51 57 65 78 79 70 59 68 58 36 7 338 336 330 318 303 314 331 328 45 252 228 234 239 249 251 224
255 261 269 273 282 292 296 304 312 333 344 344 352 357 14 31 44 49 58 72 75 78 75 85 69 57 55 43 8 1 323 311 293 301 297 300 315 247 233 246 248 267 288 246
250 255 262 267 270 283 288 293 303 319 329 341 3 359 4 22 29 47 55 55 90 92 71 71 70 54 66 55 89 15 341 317 309 309 306 264 254 249 239 232 243 254 253 266
248 249 253 260 264 271 275 283 294 309 311 324 338 3 360 20 37 30 46 68 70 73 93 110 65 57 56 61 48 36 13 326 283 297 284 258 248 242 243 235 238 247 252 259
243 244 247 253 260 256 270 282 292 297 303 321 328 345 5 2 22 31 51 47 54 71 72 67 73 84 97 82 88 72 1 304 303 264 278 274 242 230 231 238 235 242 240 253
241 241 242 248 254 250 271 279 284 288 289 305 318 327 337 348 15 26 24 49 57 58 63 76 89 107 112 119 118 124 128 131 223 221 269 256 239 262 237 230 238 233 237 250
244 239 240 246 251 251 258 272 276 279 280 290 303 316 328 337 353 14 33 43 40 43 59 64 75 87 92 109 117 134 134 146 150 152 238 237 245 245 235 230 239 251 236 240
245 237 237 238 246 252 255 265 273 275 277 286 295 306 324 328 355 3 27 29 47 55 60 67 72 70 78 86 102 116 140 146 145 178 204 200 247 249 242 236 233 254 250 247
244 238 235 235 241 248 257 263 266 269 270 279 290 300 313 326 323 341 7 30 35 53 57 65 74 81 82 84 93 99 112 135 152 184 192 223 256 255 242 224 233 247 250 249
240 236 232 233 236 246 254 263 264 263 267 275 285 292 295 308 316 326 3 12 35 40 50 59 65 78 84 87 100 101 111 119 134 155 169 179 248 248 232 240 251 262 260 257
232 234 229 225 237 242 252 261 267 265 264 273 282 285 288 297 316 322 350 346 12 38 42 41 51 66 75 96 106 113 113 134 130 151 163 197 190 254 254 255 254 262 263 263
242 229 225 217 227 238 247 258 261 262 266 270 273 277 285 290 301 314 322 337 347 1 20 16 35 75 55 91 107 111 121 137 146 156 178 185 188 197 249 258 259 271 281 282
248 226 226 203 215 234 243 255 258 261 267 265 271 284 287 290 291 302 311 321 337 342 355 1 15 59 47 75 87 127 121 104 144 167 200 195 201 203 202 238 276 280 286 288
263 218 212 198 214 228 245 258 258 256 259 268 272 281 284 291 294 299 307 311 318 322 321 326 339 336 5 46 28 139 92 110 145 168 151 159 207 243 253 257 266 287 301 309
272 232 214 203 210 219 248 255 255 254 258 268 267 284 284 291 297 301 300 303 308 309 312 310 315 322 321 290 121 140 128 137 159 116 344 7 39 333 296 298 298 306 312 321
276 240 211 202 200 223 244 259 272 245 249 266 268 271 281 285 295 301 304 304 302 302 305 302 303 306 308 310 243 301 164 155 139 53 15 326 57 4 347 356 352 347 344 349
270 262 230 228 215 243 250 266 277 249 255 267 265 268 274 282 286 291 302 300 294 296 296 300 303 310 301 297 233 237 305 325 356 57 325 314 347 340 343 355 6 6 5 8
264 256 242 236 243 244 250 256 265 264 265 262 263 262 268 282 285 295 296 296 291 294 293 296 303 304 298 299 292 298 310 317 317 343 330 326 326 336 344 351 355 360 2 6
260 246 240 244 244 214 230 264 258 260 264 268 265 269 270 278 279 283 288 290 287 287 290 301 298 291 273 241 271 286 295 315 330 329 326 327 329 337 349 2 8 24 39 38
254 239 242 247 220 254 260 253 254 258 263 268 268 265 271 279 276 279 283 285 291 286 288 291 294 297 304 305 308 302 295 308 315 310 311 1 341 29 19 16 16 26 34 36
255 250 250 239 247 257 254 250 257 260 261 271 273 273 275 276 281 279 282 281 286 281 294 288 289 293 295 292 301 306 308 316 323 313 324 342 348 9 11 15 16 24 30 40
256 252 241 247 251 250 248 247 253 256 265 273 275 274 273 279 281 282 282 279 274 290 281 278 283 290 298 296 302 307 313 323 331 326 332 339 353 9 17 23 21 32 32 42
248 249 242 246 253 253 257 258 257 264 268 267 266 273 279 279 277 283 279 277 282 275 273 275 289 291 294 296 302 308 315 323 331 336 341 347 356 2 7 16 29 29 22 25
248 254 248 252 260 267 267 268 268 269 269 262 264 276 280 274 277 279 280 279 274 273 275 286 293 296 297 298 298 306 314 319 323 327 335 341 349 356 356 360 5 5 4 9
257 255 258 260 259 263 268 271 268 270 267 271 272 272 271 269 273 272 271 274 275 281 288 296 303 303 304 304 302 307 313 317 321 324 328 334 340 342 344 344 341 342 344 345
261 256 259 266 266 267 273 273 272 275 264 263 270 268 268 278 272 269 273 274 282 291 299 308 313 314 310 308 307 307 311 315 319 323 327 330 333 334 332 325 324 326 326 327